FW3855 Weather Reports


Display with metric or nautical units.
time (UTC)temp
F
wind
direction
speed
MPH
gust
MPH
rain 1hr
in
rain 24hr
in
rain mn
in
humidity
%
barometer
mb
20260508185850 85 11 6.0 14.0 0.00 0.00 0.00 2 1017.2
20260508185350 86 281 5.0 11.0 0.00 0.00 0.00 2 1017.2
20260508184853 85 294 6.0 19.0 0.00 0.00 0.00 2 1017.3
20260508184351 85 5 4.0 19.0 0.00 0.00 0.00 2 1017.4
20260508183853 84 249 5.0 14.0 0.00 0.00 0.00 3 1017.3
20260508183349 83 229 7.0 15.0 0.00 0.00 0.00 3 1017.4
20260508182854 83 314 6.0 15.0 0.00 0.00 0.00 2 1017.5
20260508182354 84 291 5.0 12.0 0.00 0.00 0.00 2 1017.4
20260508181851 84 287 4.0 11.0 0.00 0.00 0.00 2 1017.4
20260508180848 84 259 4.0 11.0 0.00 0.00 0.00 2 1017.5
20260508180348 84 303 4.0 14.0 0.00 0.00 0.00 2 1017.6
20260508175843 83 274 5.0 14.0 0.00 0.00 0.00 2 1017.6
20260508175344 83 271 5.0 13.0 0.00 0.00 0.00 3 1017.6
20260508174344 84 339 4.0 9.0 0.00 0.00 0.00 2 1017.6
20260508173847 84 198 4.0 9.0 0.00 0.00 0.00 3 1017.6
20260508172844 82 309 4.0 11.0 0.00 0.00 0.00 3 1017.6
20260508171843 83 291 3.0 11.0 0.00 0.00 0.00 3 1017.6
20260508171344 83 195 2.0 7.0 0.00 0.00 0.00 3 1017.6
20260508170847 82 300 3.0 8.0 0.00 0.00 0.00 3 1017.6
20260508165850 81 288 3.0 8.0 0.00 0.00 0.00 4 1017.6
20260508165350 81 287 3.0 10.0 0.00 0.00 0.00 4 1017.7
20260508164842 82 294 2.0 10.0 0.00 0.00 0.00 3 1017.7
20260508164343 82 250 2.0 8.0 0.00 0.00 0.00 4 1017.7
20260508163340 82 264 3.0 7.0 0.00 0.00 0.00 4 1017.7
20260508162839 81 262 3.0 10.0 0.00 0.00 0.00 4 1017.6
20260508162338 81 326 3.0 10.0 0.00 0.00 0.00 4 1017.6
20260508161841 82 258 3.0 9.0 0.00 0.00 0.00 4 1017.5
20260508161337 81 274 2.0 9.0 0.00 0.00 0.00 4 1017.5
20260508160838 82 290 2.0 10.0 0.00 0.00 0.00 4 1017.5
20260508160334 81 186 3.0 10.0 0.00 0.00 0.00 4 1017.5
20260508155835 80 200 2.0 6.0 0.00 0.00 0.00 5 1017.4
20260508154832 81 344 2.0 6.0 0.00 0.00 0.00 4 1017.4
20260508154333 80 122 2.0 7.0 0.00 0.00 0.00 4 1017.5
20260508153830 81 288 3.0 7.0 0.00 0.00 0.00 4 1017.5
20260508153335 81 295 3.0 8.0 0.00 0.00 0.00 4 1017.4
20260508152830 80 186 2.0 8.0 0.00 0.00 0.00 4 1017.4
20260508151834 80 298 2.0 5.0 0.00 0.00 0.00 5 1017.4
20260508150834 80 294 2.0 6.0 0.00 0.00 0.00 5 1017.4
20260508145832 80 218 2.0 7.0 0.00 0.00 0.00 5 1017.4
20260508145331 79 269 3.0 9.0 0.00 0.00 0.00 5 1017.4
20260508144825 79 217 4.0 9.0 0.00 0.00 0.00 6 1017.3
20260508144326 79 191 3.0 9.0 0.00 0.00 0.00 6 1017.4
20260508143829 79 134 2.0 7.0 0.00 0.00 0.00 5 1017.4
20260508143326 78 276 2.0 6.0 0.00 0.00 0.00 5 1017.4
20260508142817 77 136 3.0 6.0 0.00 0.00 0.00 5 1017.3
20260508142312 77 164 3.0 8.0 0.00 0.00 0.00 5 1017.3
20260508141807 77 169 4.0 9.0 0.00 0.00 0.00 6 1017.2
20260508141259 77 229 4.0 9.0 0.00 0.00 0.00 6 1017.0
20260508140754 76 188 4.0 9.0 0.00 0.00 0.00 7 1017.0
20260508140249 76 101 4.0 9.0 0.00 0.00 0.00 7 1016.9
20260508135742 76 174 4.0 10.0 0.00 0.00 0.00 7 1016.9
20260508135237 75 192 5.0 10.0 0.00 0.00 0.00 7 1016.9
20260508134731 75 169 4.0 10.0 0.00 0.00 0.00 7 1016.9
20260508134224 74 162 4.0 10.0 0.00 0.00 0.00 8 1016.8
20260508133718 74 159 3.0 7.0 0.00 0.00 0.00 8 1016.8
20260508133211 74 214 2.0 8.0 0.00 0.00 0.00 8 1016.8
20260508132201 72 206 2.0 7.0 0.00 0.00 0.00 8 1016.7
20260508131653 71 173 2.0 6.0 0.00 0.00 0.00 9 1016.6
20260508131148 71 199 2.0 6.0 0.00 0.00 0.00 9 1016.6
20260508130640 71 183 3.0 6.0 0.00 0.00 0.00 8 1016.6
20260508130135 70 172 2.0 6.0 0.00 0.00 0.00 8 1016.5
20260508125628 70 123 2.0 5.0 0.00 0.00 0.00 8 1016.5
20260508125124 70 247 2.0 5.0 0.00 0.00 0.00 8 1016.5
20260508124110 70 153 2.0 6.0 0.00 0.00 0.00 8 1016.4
20260508123604 70 215 2.0 6.0 0.00 0.00 0.00 8 1016.2
20260508123059 70 224 2.0 6.0 0.00 0.00 0.00 8 1016.2
20260508122551 70 169 3.0 9.0 0.00 0.00 0.00 8 1016.2
20260508121033 70 203 4.0 10.0 0.00 0.00 0.00 8 1016.2
20260508120531 70 200 4.0 10.0 0.00 0.00 0.00 8 1016.2
20260508120024 69 219 3.0 6.0 0.00 0.00 0.00 8 1016.1
20260508115519 69 208 3.0 6.0 0.00 0.00 0.00 8 1016.2
20260508115015 70 169 3.0 8.0 0.00 0.00 0.00 7 1016.1
20260508114506 70 155 3.0 8.0 0.00 0.00 0.00 7 1016.1
20260508113454 70 196 1.0 5.0 0.00 0.00 0.00 7 1016.2
20260508112946 70 240 2.0 6.0 0.00 0.00 0.00 6 1016.2
20260508112442 71 260 2.0 6.0 0.00 0.00 0.00 6 1016.2
20260508111933 70 188 3.0 10.0 0.00 0.00 0.00 6 1016.0
20260508111427 70 230 3.0 10.0 0.00 0.00 0.00 6 1016.0
20260508110922 70 164 3.0 9.0 0.00 0.00 0.00 6 1016.1
20260508110417 71 224 2.0 8.0 0.00 0.00 0.00 6 1016.1
20260508105909 71 147 2.0 5.0 0.00 0.00 0.00 6 1016.1
20260508105406 71 210 2.0 8.0 0.00 0.00 0.00 6 1016.2
20260508104900 72 292 3.0 10.0 0.00 0.00 0.00 6 1016.4
20260508104359 72 274 4.0 12.0 0.00 0.00 0.00 6 1016.2
20260508103845 72 227 3.0 12.0 0.00 0.00 0.00 6 1016.4
20260508102833 71 284 2.0 9.0 0.00 0.00 0.00 6 1016.2
20260508102330 71 252 2.0 7.0 0.00 0.00 0.00 6 1016.1
20260508101315 70 255 2.0 4.0 0.00 0.00 0.00 6 1016.2
20260508100810 70 226 2.0 7.0 0.00 0.00 0.00 6 1016.2
20260508095252 70 233 2.0 5.0 0.00 0.00 0.00 5 1016.2
20260508094746 70 175 2.0 4.0 0.00 0.00 0.00 4 1016.4
20260508094246 70 163 2.0 4.0 0.00 0.00 0.00 3 1016.4
20260508093745 70 216 1.0 4.0 0.00 0.00 0.00 3 1016.4
20260508092747 71 185 2.0 7.0 0.00 0.00 0.00 2 1016.5
20260508092246 71 246 2.0 7.0 0.00 0.00 0.00 2 1016.2
20260508091743 71 133 1.0 6.0 0.00 0.00 0.00 2 1016.2
20260508090242 72 188 2.0 10.0 0.00 0.00 0.00 2 1016.2
20260508085741 71 221 1.0 10.0 0.00 0.00 0.00 2 1016.4
20260508085241 71 125 1.0 6.0 0.00 0.00 0.00 1 1016.4
20260508084746 72 103 1.0 7.0 0.00 0.00 0.00 1 1016.5
20260508083745 73 242 4.0 10.0 0.00 0.00 0.00 2 1016.5
20260508083248 73 282 5.0 11.0 0.00 0.00 0.00 2 1016.5
20260508082738 73 101 4.0 11.0 0.00 0.00 0.00 1 1016.6
20260508082229 73 220 4.0 11.0 0.00 0.00 0.00 1 1016.5
20260508081722 73 283 4.0 11.0 0.00 0.00 0.00 2 1016.5
20260508081221 73 267 4.0 10.0 0.00 0.00 0.00 2 1016.5
20260508080719 73 221 4.0 11.0 0.00 0.00 0.00 2 1016.6
20260508080219 72 292 3.0 11.0 0.00 0.00 0.00 2 1016.5
20260508075719 72 231 2.0 6.0 0.00 0.00 0.00 2 1016.6
20260508075223 72 165 3.0 8.0 0.00 0.00 0.00 1 1016.6
20260508074718 72 158 3.0 11.0 0.00 0.00 0.00 1 1016.7
20260508074219 71 210 2.0 11.0 0.00 0.00 0.00 2 1016.7
20260508073721 71 259 2.0 7.0 0.00 0.00 0.00 2 1016.7
20260508072715 69 234 2.0 7.0 0.00 0.00 0.00 3 1016.7
20260508072217 66 229 2.0 4.0 0.00 0.00 0.00 4 1016.7
20260508071717 66 181 2.0 4.0 0.00 0.00 0.00 4 1016.8
20260508071215 65 219 2.0 4.0 0.00 0.00 0.00 4 1016.7
20260508070714 65 207 1.0 4.0 0.00 0.00 0.00 4 1016.7
20260508070221 64 182 1.0 3.0 0.00 0.00 0.00 4 1016.7
20260508065718 65 197 1.0 3.0 0.00 0.00 0.00 4 1016.6
20260508065218 65 177 2.0 4.0 0.00 0.00 0.00 3 1016.6
20260508064723 66 192 3.0 5.0 0.00 0.00 0.00 3 1016.6
20260508064216 66 219 3.0 5.0 0.00 0.00 0.00 3 1016.7
20260508063719 66 197 3.0 4.0 0.00 0.00 0.00 3 1016.7
20260508062215 64 188 2.0 4.0 0.00 0.00 0.00 3 1016.7
20260508061215 64 191 1.0 3.0 0.00 0.00 0.00 3 1016.6
20260508060718 64 170 2.0 3.0 0.00 0.00 0.00 3 1016.6
20260508060215 64 179 1.0 3.0 0.00 0.00 0.00 3 1016.6
20260508055715 65 187 0.0 2.0 0.00 0.00 0.00 3 1016.5
20260508055217 66 197 1.0 2.0 0.00 0.00 0.00 2 1016.6
20260508054215 68 170 1.0 3.0 0.00 0.00 0.00 2 1016.5
20260508053717 69 90 1.0 5.0 0.00 0.00 0.00 1 1016.5
20260508053211 69 201 1.0 5.0 0.00 0.00 0.00 1 1016.4
20260508052710 69 192 1.0 3.0 0.00 0.00 0.00 1 1016.4
20260508052211 70 212 1.0 4.0 0.00 0.00 0.00 1 1016.4
20260508051715 71 211 2.0 4.0 0.00 0.00 0.00 1 1016.5
20260508051209 71 214 3.0 6.0 0.00 0.00 0.00 1 1016.6
20260508050711 72 211 3.0 7.0 0.00 0.00 0.00 1 1016.5
20260508050206 72 245 4.0 7.0 0.00 0.00 0.00 1 1016.6
20260508045705 72 203 4.0 6.0 0.00 0.00 0.00 1 1016.7
20260508045159 73 149 3.0 6.0 0.00 0.00 0.00 1 1016.7
20260508044655 72 209 2.0 6.0 0.00 0.00 0.00 1 1016.7
20260508044148 72 243 1.0 4.0 0.00 0.00 0.00 1 1016.7
20260508043652 72 230 1.0 3.0 0.00 0.00 0.00 1 1016.7
20260508043149 73 207 2.0 4.0 0.00 0.00 0.00 1 1016.6
20260508042145 73 303 2.0 6.0 0.00 0.00 0.00 1 1016.7
20260508041646 74 303 3.0 6.0 0.00 0.00 0.00 1 1016.7
20260508041146 74 242 2.0 6.0 0.00 0.00 0.00 1 1016.6
20260508040646 73 236 1.0 5.0 0.00 0.00 0.00 1 1016.6
20260508040145 73 296 1.0 5.0 0.00 0.00 0.00 1 1016.6
20260508035644 73 234 1.0 6.0 0.00 0.00 0.00 1 1016.5
20260508035144 74 272 2.0 6.0 0.00 0.00 0.00 1 1016.5
20260508034643 74 295 2.0 5.0 0.00 0.00 0.00 1 1016.5
20260508033644 74 293 3.0 8.0 0.00 0.00 0.00 1 1016.5
20260508033141 74 294 3.0 8.0 0.00 0.00 0.00 1 1016.2
20260508032641 73 306 2.0 5.0 0.00 0.00 0.00 1 1016.2
20260508032141 73 267 2.0 8.0 0.00 0.00 0.00 1 1016.2
20260508031636 73 291 2.0 8.0 0.00 0.00 0.00 1 1016.2
20260508030117 74 284 2.0 8.0 0.00 0.00 0.00 1 1016.1
20260508025611 74 293 2.0 8.0 0.00 0.00 0.00 1 1016.1
20260508024559 74 296 1.0 5.0 0.00 0.00 0.00 2 1015.9
20260508024054 74 302 1.0 6.0 0.00 0.00 0.00 2 1015.8
20260508023548 75 107 2.0 6.0 0.00 0.00 0.00 2 1015.8
20260508023041 75 295 3.0 8.0 0.00 0.00 0.00 2 1015.7
20260508022536 76 301 3.0 9.0 0.00 0.00 0.00 2 1015.6
20260508022032 76 257 4.0 9.0 0.00 0.00 0.00 2 1015.6
20260508021020 76 291 2.0 6.0 0.00 0.00 0.00 2 1015.3
20260508015459 77 309 2.0 7.0 0.00 0.00 0.00 2 1015.2
20260508014954 78 285 2.0 7.0 0.00 0.00 0.00 2 1015.2
20260508014447 80 317 3.0 7.0 0.00 0.00 0.00 1 1015.1
20260508013942 81 281 3.0 7.0 0.00 0.00 0.00 1 1015.1
20260508013436 81 323 3.0 7.0 0.00 0.00 0.00 1 1015.0
20260508012423 81 308 4.0 10.0 0.00 0.00 0.00 1 1015.0
20260508011917 81 328 4.0 10.0 0.00 0.00 0.00 1 1015.0
20260508011412 82 343 3.0 7.0 0.00 0.00 0.00 1 1015.1
20260508010906 82 290 3.0 7.0 0.00 0.00 0.00 1 1015.0
20260508010402 82 299 4.0 8.0 0.00 0.00 0.00 1 1015.0
20260508005853 82 331 4.0 9.0 0.00 0.00 0.00 1 1015.0
20260508005347 82 334 4.0 8.0 0.00 0.00 0.00 1 1015.0
20260508004844 82 310 3.0 8.0 0.00 0.00 0.00 1 1014.9
20260508004336 82 329 4.0 8.0 0.00 0.00 0.00 1 1014.9
20260508003829 82 319 4.0 10.0 0.00 0.00 0.00 1 1014.9
20260508003326 82 283 6.0 16.0 0.00 0.00 0.00 1 1014.9
20260508002820 83 281 4.0 16.0 0.00 0.00 0.00 1 1014.9
20260508002311 83 311 3.0 10.0 0.00 0.00 0.00 1 1014.9
20260508001808 84 294 4.0 10.0 0.00 0.00 0.00 1 1015.0
20260508000312 83 309 2.0 8.0 0.00 0.00 0.00 1 1015.0
20260507235809 84 254 4.0 10.0 0.00 0.00 0.00 1 1015.0
20260507234809 83 282 4.0 11.0 0.00 0.00 0.00 1 1015.3
20260507233807 83 123 3.0 11.0 0.00 0.00 0.00 1 1015.2
20260507233306 83 259 3.0 11.0 0.00 0.00 0.00 1 1015.2
20260507232809 83 290 2.0 6.0 0.00 0.00 0.00 1 1015.3
20260507231808 83 300 4.0 11.0 0.00 0.00 0.00 1 1015.4
20260507231306 83 359 2.0 11.0 0.00 0.00 0.00 1 1015.4
20260507230807 83 295 1.0 9.0 0.00 0.00 0.00 1 1015.3
20260507230309 82 73 4.0 10.0 0.00 0.00 0.00 1 1015.4
20260507225306 82 314 4.0 11.0 0.00 0.00 0.00 1 1015.6
20260507224801 81 291 4.0 9.0 0.00 0.00 0.00 1 1015.6
20260507223746 82 239 4.0 9.0 0.00 0.00 0.00 1 1015.7
20260507223240 83 287 3.0 10.0 0.00 0.00 0.00 1 1015.7
20260507222737 83 257 4.0 10.0 0.00 0.00 0.00 1 1015.8
20260507221726 83 307 4.0 10.0 0.00 0.00 0.00 1 1016.0
20260507221217 82 268 5.0 11.0 0.00 0.00 0.00 1 1016.0
20260507220711 82 308 4.0 11.0 0.00 0.00 0.00 1 1016.0
20260507215701 82 352 4.0 7.0 0.00 0.00 0.00 1 1016.1
20260507214648 82 32 4.0 11.0 0.00 0.00 0.00 1 1016.2
20260507214153 82 73 3.0 8.0 0.00 0.00 0.00 1 1016.4
20260507213648 82 304 4.0 9.0 0.00 0.00 0.00 1 1016.4
20260507213147 82 310 5.0 10.0 0.00 0.00 0.00 1 1016.6
20260507212653 81 305 4.0 10.0 0.00 0.00 0.00 1 1016.6
20260507212148 81 348 4.0 10.0 0.00 0.00 0.00 1 1016.7
20260507211651 81 326 4.0 11.0 0.00 0.00 0.00 1 1016.8
20260507211154 81 283 5.0 11.0 0.00 0.00 0.00 1 1016.8
20260507210651 82 344 4.0 10.0 0.00 0.00 0.00 1 1016.9
20260507210154 82 295 2.0 10.0 0.00 0.00 0.00 1 1017.0
20260507205655 83 77 1.0 7.0 0.00 0.00 0.00 1 1017.0
20260507205152 81 311 3.0 10.0 0.00 0.00 0.00 1 1017.0
20260507203149 80 342 5.0 12.0 0.00 0.00 0.00 1 1017.6
20260507202648 80 292 4.0 12.0 0.00 0.00 0.00 1 1017.5
20260507202148 80 336 4.0 10.0 0.00 0.00 0.00 1 1017.5
20260507201650 80 300 4.0 10.0 0.00 0.00 0.00 1 1017.5
20260507201150 80 33 5.0 11.0 0.00 0.00 0.00 1 1017.6
20260507200148 80 5 3.0 8.0 0.00 0.00 0.00 1 1017.7
20260507195649 80 86 2.0 7.0 0.00 0.00 0.00 1 1017.8
20260507195148 80 31 2.0 7.0 0.00 0.00 0.00 1 1018.0
20260507194652 80 50 2.0 6.0 0.00 0.00 0.00 2 1018.0
20260507194148 79 231 3.0 11.0 0.00 0.00 0.00 2 1018.0
20260507193647 78 298 4.0 11.0 0.00 0.00 0.00 2 1018.2
20260507193146 78 271 4.0 10.0 0.00 0.00 0.00 3 1018.2
20260507192146 78 56 4.0 11.0 0.00 0.00 0.00 2 1018.3
20260507191646 79 319 3.0 11.0 0.00 0.00 0.00 2 1018.4
20260507191147 79 127 3.0 9.0 0.00 0.00 0.00 2 1018.4
20260507190646 78 340 3.0 9.0 0.00 0.00 0.00 2 1018.5
20260507190146 78 42 3.0 8.0 0.00 0.00 0.00 2 1018.6